| time (UTC) | temp C | wind direction | speed KPH | gust KPH | rain 1hr cm | rain 24hr cm | rain mn cm | humidity % | barometer mb |
| 20260505040024 | 12 | 61 | 0.0 | 0.0 | 0.33 | 0.84 | 0.84 | 91 | 1016.2 |
| 20260505034519 | 12 | 86 | 0.0 | 0.0 | 0.33 | 0.81 | 0.81 | 91 | 1016.0 |
| 20260505033019 | 12 | 50 | 0.0 | 0.0 | 0.25 | 0.71 | 0.71 | 90 | 1016.1 |
| 20260505031517 | 12 | 72 | 0.0 | 3.2 | 0.18 | 0.61 | 0.61 | 90 | 1016.5 |
| 20260505030015 | 12 | 76 | 0.0 | 6.4 | 0.10 | 0.51 | 0.51 | 89 | 1016.2 |
| 20260505024517 | 12 | 74 | 3.2 | 11.3 | 0.10 | 0.46 | 0.46 | 88 | 1015.9 |
| 20260505023014 | 12 | 144 | 4.8 | 12.9 | 0.10 | 0.46 | 0.46 | 89 | 1014.8 |
| 20260505021514 | 12 | 117 | 4.8 | 12.9 | 0.10 | 0.43 | 0.43 | 89 | 1015.0 |
| 20260505020013 | 13 | 107 | 3.2 | 8.0 | 0.10 | 0.41 | 0.41 | 89 | 1015.2 |
| 20260505014512 | 13 | 84 | 1.6 | 4.8 | 0.05 | 0.36 | 0.36 | 89 | 1015.2 |
| 20260505013012 | 13 | 104 | 0.0 | 6.4 | 0.08 | 0.36 | 0.36 | 89 | 1015.1 |
| 20260505011515 | 13 | 130 | 1.6 | 4.8 | 0.08 | 0.33 | 0.33 | 89 | 1015.3 |
| 20260505010114 | 13 | 95 | 0.0 | 9.7 | 0.10 | 0.30 | 0.30 | 89 | 1015.5 |
| 20260505004511 | 13 | 147 | 0.0 | 11.3 | 0.13 | 0.30 | 0.30 | 89 | 1015.8 |
| 20260505003019 | 13 | 112 | 3.2 | 14.5 | 0.13 | 0.28 | 0.28 | 88 | 1015.8 |
| 20260505001509 | 13 | 62 | 4.8 | 12.9 | 0.15 | 0.25 | 0.25 | 89 | 1015.7 |
| 20260505000009 | 13 | 91 | 6.4 | 12.9 | 0.13 | 0.20 | 0.20 | 88 | 1015.7 |
| 20260504234509 | 13 | 104 | 0.0 | 16.1 | 0.10 | 0.18 | 0.18 | 88 | 1015.5 |
| 20260504233007 | 13 | 107 | 6.4 | 14.5 | 0.10 | 0.15 | 0.15 | 86 | 1015.6 |
| 20260504231506 | 14 | 137 | 4.8 | 12.9 | 0.08 | 0.10 | 0.10 | 86 | 1015.5 |
| 20260504230006 | 14 | 82 | 1.6 | 8.0 | 0.05 | 0.08 | 0.08 | 85 | 1015.9 |
| 20260504224505 | 15 | 96 | 3.2 | 9.7 | 0.03 | 0.05 | 0.05 | 83 | 1015.8 |
| 20260504223005 | 15 | 78 | 3.2 | 8.0 | 0.03 | 0.05 | 0.05 | 80 | 1016.0 |
| 20260504221503 | 15 | 120 | 0.0 | 0.0 | 0.00 | 0.03 | 0.03 | 75 | 1015.9 |
| 20260504220003 | 15 | 105 | 0.0 | 4.8 | 0.00 | 0.03 | 0.03 | 73 | 1015.9 |
| 20260504214504 | 16 | 142 | 0.0 | 6.4 | 0.00 | 0.03 | 0.03 | 73 | 1016.1 |
| 20260504213004 | 16 | 161 | 1.6 | 6.4 | 0.00 | 0.03 | 0.03 | 73 | 1016.0 |
| 20260504211501 | 16 | 103 | 0.0 | 4.8 | 0.00 | 0.03 | 0.03 | 74 | 1016.1 |
| 20260504210109 | 15 | 202 | 0.0 | 4.8 | 0.00 | 0.03 | 0.03 | 76 | 1016.2 |
| 20260504204614 | 15 | 149 | 0.0 | 8.0 | 0.00 | 0.03 | 0.03 | 78 | 1016.1 |
| 20260504203109 | 15 | 117 | 1.6 | 4.8 | 0.00 | 0.03 | 0.03 | 74 | 1016.0 |
| 20260504201558 | 15 | 137 | 0.0 | 4.8 | 0.00 | 0.03 | 0.03 | 77 | 1016.0 |
| 20260504200058 | 15 | 107 | 0.0 | 3.2 | 0.00 | 0.03 | 0.03 | 75 | 1016.3 |
| 20260504194602 | 15 | 151 | 1.6 | 9.7 | 0.00 | 0.03 | 0.03 | 75 | 1016.3 |
| 20260504193054 | 15 | 104 | 3.2 | 11.3 | 0.03 | 0.03 | 0.03 | 77 | 1016.3 |
| 20260504191554 | 15 | 102 | 4.8 | 12.9 | 0.03 | 0.03 | 0.03 | 77 | 1016.4 |
| 20260504190154 | 15 | 205 | 1.6 | 12.9 | 0.03 | 0.03 | 0.03 | 80 | 1016.3 |
| 20260504184552 | 15 | 119 | 1.6 | 12.9 | 0.03 | 0.03 | 0.03 | 81 | 1016.4 |
| 20260504183051 | 15 | 161 | 3.2 | 12.9 | 0.00 | 0.00 | 0.00 | 79 | 1016.4 |
| 20260504181551 | 15 | 144 | 4.8 | 12.9 | 0.00 | 0.00 | 0.00 | 74 | 1016.4 |
| 20260504180049 | 15 | 147 | 3.2 | 12.9 | 0.00 | 0.00 | 0.00 | 72 | 1016.2 |
| 20260504174546 | 15 | 196 | 1.6 | 11.3 | 0.00 | 0.00 | 0.00 | 72 | 1016.1 |
| 20260504173041 | 15 | 151 | 4.8 | 16.1 | 0.00 | 0.00 | 0.00 | 71 | 1016.0 |
| 20260504171539 | 15 | 159 | 8.0 | 14.5 | 0.00 | 0.00 | 0.00 | 73 | 1016.0 |
| 20260504081554 | 12 | 147 | 1.6 | 6.4 | 0.00 | 0.00 | 0.00 | 77 | 1014.9 |
| 20260504044531 | 15 | 159 | 4.8 | 12.9 | 0.00 | 0.00 | 0.00 | 66 | 1013.8 |
| 20260504043026 | 15 | 238 | 3.2 | 14.5 | 0.00 | 0.00 | 0.00 | 66 | 1013.6 |
| 20260504041523 | 16 | 164 | 3.2 | 12.9 | 0.00 | 0.00 | 0.00 | 65 | 1013.5 |